[[{"header":{"parameterUnit":"m.s-1","parameterCategory":2,"la1":30.2991,"la2":30.254,"lo1":-89.0895,"lo2":-89.0444,"dy":0.0017,"dx":0.0017,"nx":28,"ny":28,"refTime":"2024-02-08T09:00:00:Z","depth":"0","parameterNumber":2,"parameterNumberName":"U-component_of_CURRENTS"},"data":[0,0,0,0,0,0,0,0,0,0,0,0,0,0,0,0,0,0,0,0,0,0,0,0,0,0,0,0,0,0,0,0,0,0,0,0,0,0,0,0,0,0,0,0,0,0,0,0,0,0,0,0,0,0,0,0,0,0,0.224,0.2241,0,0.228,0.228,0.228,0.2283,0.2283,0.2283,0.2282,0.2285,0.2285,0.2285,0,0,0,0,0,0,0,0,0,0,0,0,0,0.2181,0.2182,0.224,0.2241,0.2242,0.228,0.228,0.228,0.2283,0.2283,0.2283,0.2282,0.2284,0.2285,0.2285,0,0,0,0,0,0,0,0,0,0,0,0,0,0.2211,0.2182,0.224,0.2249,0.225,0.228,0.228,0.228,0.2283,0.2283,0.2283,0.2282,0.2284,0.2285,0.2285,0.2295,0,0,0.2287,0.2287,0,0,0,0,0,0,0,0,0.2209,0.2212,0.2247,0.2249,0.225,0.2278,0.226,0.2284,0.2283,0.2269,0.2282,0.2282,0.228,0.2281,0.2287,0.2295,0.2295,0.2287,0.2287,0.2287,0.2287,0,0,0,0,0,0,0,0.2207,0.2211,0.2254,0.2248,0.225,0.2256,0.2259,0.2265,0.2274,0.227,0.2271,0.2278,0.2281,0.2287,0.2287,0.2295,0.2287,0.2287,0.2287,0.2287,0.2353,0.2354,0,0,0,0,0,0,0.2206,0.2209,0.2253,0.2255,0.223,0.2258,0.2261,0.2268,0.2275,0.2276,0.2279,0.2279,0.2286,0.2287,0.2287,0.2333,0.2287,0.2287,0.2288,0.2351,0.2353,0.2355,0,0,0,0,0,0,0.2204,0.2209,0.2251,0.2235,0.2241,0.2259,0.2266,0.2269,0.2279,0.2282,0.2283,0.2288,0.2286,0.2287,0.2306,0.2332,0.2288,0.2288,0.235,0.2352,0.2354,0.2403,0,0,0,0,0,0,0.2203,0.2209,0.2212,0.2234,0.2242,0.2276,0.2267,0.227,0.2285,0.2286,0.229,0.2289,0.2286,0.2305,0.2306,0.2331,0.2288,0.2348,0.2351,0.2353,0.24,0.2407,0.2413,0,0,0,0,0,0.22,0.2202,0.2211,0.2217,0.2245,0.2277,0.2281,0.2292,0.2286,0.2298,0.2304,0.229,0.2324,0.2307,0.2308,0.2333,0.2346,0.235,0.2353,0.2397,0.2405,0.2413,0,0,0,0,0,0,0.2173,0.2204,0.2214,0.2224,0.2255,0.2278,0.2287,0.2296,0.231,0.2309,0.2305,0.2306,0.2338,0.2329,0.231,0.2362,0.2334,0.2338,0.2367,0.2375,0.2382,0.2389,0.2289,0,0,0,0,0,0.2171,0.2182,0.2218,0.2227,0.2243,0.2268,0.228,0.2293,0.231,0.2316,0.232,0.233,0.2352,0.2357,0.2372,0.2393,0.2409,0.2412,0.2419,0.2424,0.2432,0.2476,0.2487,0.2366,0.2366,0.2366,0,0,0.2161,0.2181,0.2186,0.2223,0.2244,0.2277,0.2274,0.23,0.2327,0.2313,0.2342,0.2354,0.2366,0.2398,0.2411,0.2391,0.2472,0.2428,0.2433,0.2438,0.2481,0.2493,0.2503,0.2368,0.2368,0.2367,0,0,0.2156,0.217,0.2185,0.2213,0.2255,0.2279,0.229,0.2324,0.2339,0.2372,0.2378,0.2407,0.2423,0.2447,0.2458,0.2509,0.2511,0.2512,0.2545,0.2588,0.2598,0.2607,0.2663,0.2677,0.2509,0.2509,0.2509,0,0.2143,0.2171,0.2194,0.2223,0.2251,0.2283,0.2317,0.2342,0.2377,0.2399,0.2386,0.2446,0.2451,0.2508,0.2528,0.2525,0.2552,0.2512,0.2596,0.2605,0.2614,0.2669,0.2683,0.2512,0.2512,0.2511,0.2511,0,0.2157,0.2184,0.2197,0.2249,0.2282,0.2314,0.2362,0.2393,0.2413,0.2441,0.2496,0.2512,0.2549,0.2558,0.2557,0.2627,0.263,0.2604,0.2574,0.2629,0.2684,0.2698,0.2516,0.2515,0.2514,0.2513,0,0,0.2116,0.2192,0.2196,0.2232,0.23,0.233,0.2385,0.2449,0.2488,0.2519,0.2573,0.2615,0.2627,0.2643,0.2651,0.2683,0.2772,0.267,0.2671,0.2724,0.2884,0.2933,0.2953,0.2759,0.2762,0.2763,0.2905,0,0.2124,0.218,0.222,0.2281,0.2322,0.2375,0.2425,0.2485,0.2531,0.2588,0.2623,0.2674,0.2659,0.2684,0.2718,0.2763,0.2808,0.2737,0.2825,0.2828,0.2862,0.297,0.2964,0.3093,0.2919,0.2921,0.2923,0,0.2126,0.217,0.2225,0.2315,0.2336,0.2371,0.2464,0.2515,0.2604,0.2643,0.2703,0.2734,0.2812,0.2774,0.2885,0.2842,0.2873,0.2895,0.29,0.2937,0.2903,0.3007,0.3125,0.3082,0.2945,0.2943,0.2941,0,0.2091,0.2174,0.2219,0.2246,0.2346,0.2377,0.243,0.2521,0.2584,0.268,0.2741,0.2818,0.2879,0.2923,0.2991,0.2943,0.311,0.3043,0.312,0.3123,0.3132,0.3133,0.3216,0.3121,0.312,0.312,0.312,0,0.2082,0.2117,0.22,0.2221,0.2278,0.2354,0.2422,0.2488,0.2603,0.2682,0.2762,0.2849,0.2919,0.3021,0.3042,0.316,0.316,0.3165,0.3176,0.3152,0.3153,0.3123,0.3083,0.3125,0.3124,0.3123,0.3122,0,0.2032,0.2086,0.214,0.2232,0.2258,0.2293,0.2413,0.2471,0.2588,0.2699,0.274,0.2909,0.3055,0.314,0.3244,0.3253,0.3273,0.3362,0.3345,0.3352,0.3353,0.3316,0.3243,0.3131,0.3467,0.347,0.3471,0,0.2011,0.2033,0.212,0.2146,0.218,0.2248,0.2301,0.2436,0.2511,0.273,0.2785,0.2985,0.3128,0.3348,0.3421,0.3529,0.3376,0.3547,0.3446,0.3398,0.3363,0.3151,0.3043,0.3483,0.3485,0.3486,0.3487,0,0.197,0.1994,0.2034,0.2087,0.2133,0.2201,0.2287,0.2351,0.2517,0.2644,0.283,0.2975,0.3253,0.3407,0.3583,0.3618,0.342,0.3581,0.3533,0.3407,0.3179,0.3062,0.3347,0.3501,0.3499,0.3498,0.3498,0.3497,0.1924,0.1934,0.198,0.2025,0.2077,0.2132,0.2162,0.2287,0.2412,0.2592,0.2777,0.2996,0.332,0.3597,0.3609,0.3683,0.3527,0.3618,0.3588,0.3383,0.3237,0.357,0.3727,0.3727,0.3727,0.3727,0.3727,0,0.1866,0.1887,0.1923,0.1966,0.1989,0.2051,0.2139,0.2174,0.228,0.2533,0.271,0.309,0.3335,0.3549,0.3793,0.3729,0.3468,0.3631,0.3334,0.323,0.3573,0.3539,0.3661,0.3661,0.3661,0.3661,0.3661,0.3661,0.1835,0.184,0.1861,0.1866,0.1899,0.1907,0.1938,0.2015,0.2179,0.2431,0.2679,0.2908,0.3371,0.3757,0.3848,0.3753,0.3426,0.3324,0.319,0.3486,0.348,0.3474,0.3433,0.353,0.353,0.2725,0.272,0.2716]},{"header":{"parameterUnit":"m.s-1","parameterCategory":2,"la1":30.2991,"la2":30.254,"lo1":-89.0895,"lo2":-89.0444,"dy":0.0017,"dx":0.0017,"nx":28,"ny":28,"refTime":"2024-02-08T09:00:00:Z","depth":"0","parameterNumber":3,"parameterNumberName":"V-component_of_CURRENTS"},"data":[0,0,0,0,0,0,0,0,0,0,0,0,0,0,0,0,0,0,0,0,0,0,0,0,0,0,0,0,0,0,0,0,0,0,0,0,0,0,0,0,0,0,0,0,0,0,0,0,0,0,0,0,0,0,0,0,0,0,-0.005,-0.0051,0,-0.0128,-0.0129,-0.013,-0.0192,-0.0192,-0.0193,-0.0193,-0.0315,-0.0317,-0.032,0,0,0,0,0,0,0,0,0,0,0,0,0,0.0008,0.0008,-0.005,-0.0051,-0.0052,-0.0128,-0.0129,-0.013,-0.0192,-0.0192,-0.0193,-0.0194,-0.0314,-0.0317,-0.032,0,0,0,0,0,0,0,0,0,0,0,0,0,-0.0039,0.0007,-0.005,-0.0091,-0.0096,-0.0128,-0.0129,-0.013,-0.0192,-0.0192,-0.0193,-0.0194,-0.0313,-0.0317,-0.0321,-0.0329,0,0,-0.0333,-0.0335,0,0,0,0,0,0,0,0,-0.0036,-0.0041,-0.0084,-0.0089,-0.0094,-0.0151,-0.0153,-0.0199,-0.0191,-0.0156,-0.0194,-0.0194,-0.0263,-0.0271,-0.0284,-0.0335,-0.034,-0.0334,-0.0336,-0.0338,-0.0339,0,0,0,0,0,0,0,-0.0032,-0.0038,-0.0082,-0.0085,-0.0091,-0.0119,-0.0126,-0.0162,-0.0205,-0.0159,-0.0164,-0.0171,-0.0266,-0.028,-0.0288,-0.0342,-0.0333,-0.0337,-0.034,-0.0341,-0.0409,-0.0408,0,0,0,0,0,0,-0.0019,-0.0035,-0.0079,-0.0084,-0.0065,-0.0119,-0.0127,-0.0132,-0.0204,-0.0215,-0.017,-0.0174,-0.0273,-0.0283,-0.0292,-0.0299,-0.0338,-0.0342,-0.0344,-0.0409,-0.0409,-0.0408,0,0,0,0,0,0,-0.0017,-0.0022,-0.0076,-0.0061,-0.007,-0.0119,-0.0124,-0.0133,-0.0147,-0.0212,-0.0224,-0.0174,-0.0274,-0.0286,-0.0323,-0.0305,-0.0343,-0.0347,-0.041,-0.0409,-0.0408,-0.0319,0,0,0,0,0,0,-0.0015,-0.0021,-0.0016,-0.006,-0.007,-0.0083,-0.0123,-0.0134,-0.015,-0.0155,-0.0219,-0.0232,-0.0275,-0.0316,-0.0327,-0.0311,-0.035,-0.0411,-0.041,-0.0409,-0.0322,-0.0315,-0.0308,0,0,0,0,0,-0.0013,0.0005,-0.0015,-0.002,-0.0062,-0.0082,-0.0089,-0.0128,-0.0149,-0.0146,-0.0196,-0.023,-0.0316,-0.0319,-0.0332,-0.0317,-0.0412,-0.041,-0.0409,-0.0326,-0.0316,-0.0308,0,0,0,0,0,0,0.0035,-0.0002,-0.0024,-0.0018,-0.0045,-0.0092,-0.009,-0.012,-0.0156,-0.0162,-0.0227,-0.0242,-0.0266,-0.0303,-0.0305,-0.0333,-0.0367,-0.0368,-0.03,-0.0292,-0.0284,-0.0266,-0.0354,0,0,0,0,0,0.0048,0.0048,0.0007,0.0012,0.0003,-0.0043,-0.0055,-0.0082,-0.0121,-0.0137,-0.0182,-0.023,-0.0268,-0.0289,-0.0328,-0.0344,-0.0386,-0.0342,-0.0334,-0.0328,-0.0322,-0.038,-0.0378,-0.0403,-0.0403,-0.0403,0,0,0.0066,0.0047,0.0046,0.0021,-0.0002,-0.0001,-0.0052,-0.0061,-0.0063,-0.0144,-0.0157,-0.0207,-0.0268,-0.0287,-0.03,-0.0317,-0.0339,-0.0326,-0.032,-0.0318,-0.0379,-0.0376,-0.0374,-0.0402,-0.0402,-0.0403,0,0,0.0112,0.0089,0.0107,0.009,0.0064,0.0037,0.0038,-0.0003,-0.0024,-0.0045,-0.0103,-0.0146,-0.0197,-0.0241,-0.0269,-0.0246,-0.03,-0.0251,-0.0201,-0.0258,-0.0256,-0.0255,-0.0287,-0.029,-0.0247,-0.0246,-0.0246,0,0.0137,0.0149,0.011,0.0124,0.0118,0.006,0.0079,0.0054,0.0005,-0.0012,-0.0035,-0.0124,-0.0176,-0.0212,-0.0202,-0.023,-0.0262,-0.0227,-0.0248,-0.0248,-0.0249,-0.0282,-0.0287,-0.0242,-0.0242,-0.0243,-0.0243,0,0.0194,0.0201,0.0214,0.0209,0.0199,0.0206,0.0166,0.0152,0.0119,0.0081,0.004,-0.0036,-0.0092,-0.0109,-0.0149,-0.0174,-0.0193,-0.0232,-0.0267,-0.0241,-0.0278,-0.0284,-0.0235,-0.0237,-0.0238,-0.024,0,0,0.0254,0.0255,0.0258,0.0267,0.0244,0.0242,0.0243,0.0219,0.0212,0.0159,0.0142,0.0071,0.0018,-0.0018,-0.0078,-0.0122,-0.0152,-0.0167,-0.0172,-0.0193,-0.0256,-0.0254,-0.0261,-0.0194,-0.0195,-0.0196,-0.0273,0,0.0311,0.0356,0.0337,0.0373,0.0392,0.0343,0.0345,0.0313,0.0272,0.0241,0.0157,0.0117,0.0056,0.0029,-0.0026,-0.0124,-0.0166,-0.0126,-0.0283,-0.0288,-0.0286,-0.0268,-0.0241,-0.0306,-0.0279,-0.028,-0.0281,0,0.0372,0.0394,0.0442,0.0449,0.0452,0.0459,0.0442,0.0435,0.0373,0.034,0.0279,0.0209,0.0135,0.0079,-0.007,-0.0039,-0.0134,-0.021,-0.0216,-0.0251,-0.0298,-0.0333,-0.0319,-0.0517,-0.0291,-0.029,-0.029,0,0.0433,0.0465,0.0505,0.0508,0.0508,0.0514,0.0507,0.0462,0.0465,0.0398,0.0392,0.0278,0.0232,0.0095,-0.0052,-0.0066,-0.021,-0.026,-0.0346,-0.0346,-0.0373,-0.0374,-0.0567,-0.0364,-0.0364,-0.0364,-0.0364,0,0.0498,0.0528,0.0534,0.0556,0.0591,0.057,0.0593,0.0563,0.0543,0.0555,0.0446,0.0439,0.0235,0.013,-0.0023,-0.0187,-0.0194,-0.0329,-0.0368,-0.0338,-0.0335,-0.055,-0.0667,-0.0367,-0.0366,-0.0366,-0.0365,0,0.055,0.0559,0.0602,0.0616,0.062,0.0641,0.066,0.0678,0.065,0.0665,0.0655,0.0558,0.0428,0.0232,0.0014,-0.0134,-0.0417,-0.0363,-0.0296,-0.0326,-0.0596,-0.0707,-0.0939,-0.1038,-0.0479,-0.048,-0.048,0,0.058,0.0611,0.0641,0.0665,0.0671,0.0703,0.0726,0.0723,0.0756,0.0749,0.0771,0.0666,0.0622,0.0318,0.003,-0.0233,-0.0427,-0.0393,-0.0427,-0.0602,-0.0756,-0.0838,-0.091,-0.0424,-0.0424,-0.0424,-0.0424,0,0.063,0.0635,0.0664,0.0718,0.0752,0.0804,0.0847,0.09,0.0909,0.0946,0.0988,0.0965,0.0684,0.0435,0.0065,-0.0129,-0.0538,-0.04,-0.0615,-0.0752,-0.0822,-0.0936,-0.0372,-0.0423,-0.0423,-0.0423,-0.0423,-0.0423,0.0651,0.0677,0.0715,0.0766,0.0818,0.0902,0.0972,0.1047,0.1138,0.1231,0.1185,0.1224,0.0831,0.0341,0.0013,-0.0533,-0.0555,-0.0691,-0.0815,-0.0884,-0.0975,-0.0388,-0.0464,-0.0465,-0.0465,-0.0465,-0.0465,0,0.0674,0.0706,0.0761,0.0833,0.0912,0.0932,0.1052,0.1148,0.1293,0.1406,0.1475,0.1367,0.0857,0.0332,-0.0416,-0.0853,-0.1028,-0.1096,-0.1227,-0.1286,-0.0791,-0.0784,-0.089,-0.089,-0.089,-0.0889,-0.0889,-0.0889,0.0683,0.0735,0.0768,0.0897,0.0964,0.1093,0.118,0.1336,0.1466,0.166,0.1752,0.1773,0.1416,-0.0022,-0.1035,-0.1286,-0.1604,-0.167,-0.1852,-0.1533,-0.1505,-0.1479,-0.15,-0.1755,-0.1756,-0.2277,-0.2282,-0.2286]}],[{"header":{"parameterUnit":"m.s-1","parameterCategory":2,"la1":30.2991,"la2":30.254,"lo1":-89.0895,"lo2":-89.0444,"dy":0.0017,"dx":0.0017,"nx":28,"ny":28,"refTime":"2024-02-08T09:00:00:Z","depth":"2","parameterNumber":2,"parameterNumberName":"U-component_of_CURRENTS"},"data":[0,0,0,0,0,0,0,0,0,0,0,0,0,0,0,0,0,0,0,0,0,0,0,0,0,0,0,0,0,0,0,0,0,0,0,0,0,0,0,0,0,0,0,0,0,0,0,0,0,0,0,0,0,0,0,0,0,0,0.2055,0.2056,0,0.2088,0.2088,0.2088,0.2098,0.2098,0.2098,0.2098,0.2115,0.2116,0.2116,0,0,0,0,0,0,0,0,0,0,0,0,0,0.1998,0.1999,0.2055,0.2056,0.2056,0.2088,0.2088,0.2088,0.2098,0.2098,0.2098,0.2098,0.2115,0.2116,0.2116,0,0,0,0,0,0,0,0,0,0,0,0,0,0.2024,0.1999,0.2055,0.2066,0.2068,0.2088,0.2088,0.2088,0.2098,0.2098,0.2098,0.2098,0.2115,0.2116,0.2116,0.212,0,0,0.2118,0.2119,0,0,0,0,0,0,0,0,0.2022,0.2026,0.2064,0.2066,0.2067,0.2091,0.2074,0.2099,0.2098,0.2084,0.2098,0.2098,0.2107,0.2108,0.2112,0.2121,0.2121,0.2118,0.2119,0.2119,0.2119,0,0,0,0,0,0,0,0.202,0.2024,0.2066,0.2065,0.2067,0.2069,0.2073,0.2079,0.2093,0.2085,0.2087,0.2094,0.2107,0.2111,0.2112,0.2122,0.2118,0.2119,0.2119,0.212,0.2187,0.2189,0,0,0,0,0,0,0.2021,0.2023,0.2065,0.2067,0.2047,0.207,0.2074,0.2081,0.2093,0.2096,0.2094,0.2094,0.211,0.2111,0.2113,0.2163,0.2119,0.212,0.212,0.2186,0.2188,0.2189,0,0,0,0,0,0,0.202,0.2024,0.2064,0.2047,0.2053,0.2071,0.2079,0.2082,0.2095,0.21,0.2102,0.2105,0.211,0.2112,0.2136,0.2162,0.212,0.212,0.2184,0.2186,0.2188,0.2235,0,0,0,0,0,0,0.2018,0.2024,0.203,0.2047,0.2054,0.2086,0.208,0.2083,0.2099,0.21,0.211,0.2111,0.211,0.2135,0.2136,0.2162,0.2121,0.2182,0.2185,0.2188,0.2232,0.2239,0.2245,0,0,0,0,0,0.2016,0.2023,0.203,0.2036,0.2062,0.2087,0.2091,0.2102,0.21,0.2112,0.2122,0.2111,0.2153,0.2136,0.2138,0.2165,0.2181,0.2184,0.2187,0.2229,0.2237,0.2244,0,0,0,0,0,0,0.2,0.2026,0.2034,0.2049,0.2073,0.209,0.2102,0.2108,0.2124,0.2126,0.2126,0.2129,0.2161,0.2157,0.2139,0.2193,0.2167,0.217,0.2198,0.2206,0.2212,0.2216,0.2122,0,0,0,0,0,0.2,0.2015,0.2041,0.2055,0.2068,0.2086,0.2098,0.2109,0.2125,0.2132,0.214,0.2153,0.2174,0.2184,0.2198,0.2223,0.2237,0.2243,0.225,0.2255,0.2261,0.2304,0.2315,0.2199,0.2199,0.2199,0,0,0.1996,0.2015,0.2022,0.2054,0.2071,0.2095,0.2093,0.2118,0.2141,0.2131,0.2163,0.2174,0.2186,0.2221,0.2235,0.222,0.2299,0.2259,0.2263,0.2266,0.2309,0.232,0.233,0.2202,0.2201,0.2201,0,0,0.1999,0.2016,0.2031,0.2055,0.2089,0.2106,0.2116,0.2143,0.2159,0.219,0.2196,0.2224,0.2246,0.2267,0.2278,0.2326,0.233,0.2333,0.2367,0.241,0.242,0.2429,0.2474,0.2487,0.2335,0.2336,0.2336,0,0.1992,0.2019,0.2039,0.2064,0.2088,0.2112,0.2138,0.2161,0.2192,0.2215,0.2206,0.2264,0.2269,0.2322,0.2342,0.2341,0.2367,0.2336,0.2419,0.2427,0.2436,0.248,0.2493,0.2338,0.2338,0.2338,0.2337,0,0.2009,0.2035,0.2048,0.209,0.2116,0.2145,0.2182,0.2212,0.2233,0.2256,0.2311,0.2325,0.2362,0.2371,0.2371,0.2438,0.244,0.2421,0.2398,0.245,0.2493,0.2506,0.2342,0.2341,0.234,0.234,0,0,0.1981,0.2047,0.2051,0.2078,0.2135,0.2157,0.2208,0.2263,0.23,0.2332,0.2385,0.2422,0.2435,0.2449,0.2458,0.2493,0.2575,0.2486,0.2487,0.2529,0.2683,0.2697,0.2711,0.2574,0.2576,0.2578,0.2695,0,0.199,0.2037,0.2072,0.2121,0.215,0.2199,0.2243,0.2295,0.234,0.2397,0.2433,0.2481,0.2464,0.249,0.2526,0.2567,0.2609,0.2545,0.2628,0.263,0.2634,0.2727,0.253,0.2619,0.2707,0.2709,0.2711,0,0.1991,0.2028,0.2076,0.2145,0.2163,0.2196,0.2278,0.2324,0.2411,0.2448,0.2508,0.2539,0.2612,0.2579,0.2679,0.2644,0.2671,0.2691,0.2696,0.2699,0.2668,0.2579,0.2638,0.2732,0.273,0.2728,0.2727,0,0.1958,0.2027,0.2067,0.2091,0.2172,0.2207,0.2254,0.2337,0.2393,0.249,0.2545,0.2618,0.2676,0.2719,0.2775,0.2736,0.2883,0.2829,0.2867,0.2868,0.2712,0.2696,0.2898,0.2898,0.2897,0.2897,0.2897,0,0.1952,0.198,0.2054,0.2075,0.2123,0.2189,0.2253,0.2314,0.242,0.249,0.2569,0.2646,0.2715,0.2805,0.2823,0.2911,0.2928,0.2902,0.291,0.2725,0.271,0.2804,0.2791,0.2901,0.29,0.29,0.2899,0,0.1906,0.1958,0.1999,0.2081,0.2107,0.2139,0.2248,0.2301,0.2408,0.2509,0.2549,0.2702,0.2826,0.2899,0.2993,0.2989,0.305,0.3067,0.2857,0.2839,0.2988,0.2977,0.312,0.3122,0.3123,0.3125,0.3126,0,0.1886,0.1905,0.198,0.2004,0.2042,0.2105,0.2153,0.2273,0.2343,0.2535,0.2587,0.276,0.2865,0.3045,0.308,0.3151,0.3136,0.2986,0.2871,0.3024,0.3017,0.3003,0.299,0.2681,0.2678,0.2676,0.2674,0,0.1844,0.187,0.1906,0.1952,0.1999,0.2054,0.214,0.219,0.2338,0.2442,0.2597,0.2706,0.2915,0.2934,0.3056,0.3046,0.2959,0.2947,0.3173,0.2666,0.2623,0.2612,0.2611,0.2655,0.2657,0.2658,0.2659,0.266,0.1804,0.1812,0.1857,0.1895,0.1944,0.1988,0.2006,0.2117,0.2214,0.2351,0.251,0.2621,0.2735,0.2844,0.2804,0.2781,0.2959,0.2811,0.2812,0.2817,0.2756,0.2719,0.2758,0.276,0.2762,0.2764,0.2766,0,0.1746,0.177,0.1801,0.1836,0.185,0.1913,0.1984,0.1996,0.2066,0.2246,0.2371,0.2298,0.239,0.2482,0.2449,0.2492,0.2393,0.2371,0.2212,0.2238,0.226,0.2162,0.201,0.2007,0.2004,0.2001,0,0,0.172,0.1722,0.1738,0.1732,0.1761,0.1758,0.1778,0.1815,0.192,0.198,0.2055,0.2304,0.2455,0.2193,0.2199,0.2098,0.2126,0.202,0.2645,0.2488,0.2504,0.2562,0.245,0,0,0,0,0]},{"header":{"parameterUnit":"m.s-1","parameterCategory":2,"la1":30.2991,"la2":30.254,"lo1":-89.0895,"lo2":-89.0444,"dy":0.0017,"dx":0.0017,"nx":28,"ny":28,"refTime":"2024-02-08T09:00:00:Z","depth":"2","parameterNumber":3,"parameterNumberName":"V-component_of_CURRENTS"},"data":[0,0,0,0,0,0,0,0,0,0,0,0,0,0,0,0,0,0,0,0,0,0,0,0,0,0,0,0,0,0,0,0,0,0,0,0,0,0,0,0,0,0,0,0,0,0,0,0,0,0,0,0,0,0,0,0,0,0,-0.0179,-0.018,0,-0.0255,-0.0256,-0.0257,-0.0303,-0.0303,-0.0304,-0.0304,-0.0402,-0.0405,-0.0407,0,0,0,0,0,0,0,0,0,0,0,0,0,-0.0103,-0.0104,-0.0179,-0.018,-0.0181,-0.0255,-0.0256,-0.0257,-0.0303,-0.0303,-0.0304,-0.0304,-0.0402,-0.0404,-0.0407,0,0,0,0,0,0,0,0,0,0,0,0,0,-0.0153,-0.0105,-0.0178,-0.0213,-0.0216,-0.0255,-0.0256,-0.0258,-0.0303,-0.0303,-0.0304,-0.0304,-0.0401,-0.0404,-0.0408,-0.0423,0,0,-0.0419,-0.042,0,0,0,0,0,0,0,0,-0.015,-0.0156,-0.0207,-0.021,-0.0215,-0.027,-0.0266,-0.0314,-0.0303,-0.027,-0.0304,-0.0304,-0.036,-0.0367,-0.038,-0.0428,-0.0432,-0.0419,-0.0421,-0.0423,-0.0424,0,0,0,0,0,0,0,-0.0147,-0.0153,-0.0209,-0.0208,-0.0213,-0.0235,-0.0242,-0.0275,-0.0312,-0.0273,-0.0276,-0.0285,-0.0363,-0.0376,-0.0383,-0.0433,-0.0419,-0.0422,-0.0424,-0.0426,-0.0495,-0.0495,0,0,0,0,0,0,-0.0136,-0.015,-0.0206,-0.0211,-0.0183,-0.0236,-0.0244,-0.0252,-0.0312,-0.0321,-0.0285,-0.0287,-0.037,-0.0379,-0.0387,-0.0398,-0.0423,-0.0426,-0.0428,-0.0496,-0.0495,-0.0495,0,0,0,0,0,0,-0.0134,-0.014,-0.0203,-0.0182,-0.0192,-0.0236,-0.0245,-0.0253,-0.0268,-0.032,-0.033,-0.0292,-0.0371,-0.0381,-0.0416,-0.0403,-0.0428,-0.0431,-0.0496,-0.0496,-0.0495,-0.0428,0,0,0,0,0,0,-0.0131,-0.0139,-0.0139,-0.0181,-0.0193,-0.0221,-0.0245,-0.0254,-0.0273,-0.0277,-0.033,-0.0339,-0.0372,-0.041,-0.042,-0.0408,-0.0434,-0.0496,-0.0496,-0.0495,-0.0431,-0.0426,-0.0421,0,0,0,0,0,-0.0128,-0.0127,-0.0139,-0.0146,-0.0192,-0.0221,-0.0228,-0.0261,-0.0273,-0.0276,-0.0314,-0.0338,-0.0413,-0.0413,-0.0424,-0.0413,-0.0497,-0.0496,-0.0495,-0.0433,-0.0427,-0.0421,0,0,0,0,0,0,-0.0094,-0.0133,-0.0146,-0.0157,-0.0184,-0.0228,-0.0235,-0.0257,-0.0289,-0.0291,-0.034,-0.0352,-0.0377,-0.0406,-0.0405,-0.0432,-0.0456,-0.0457,-0.0405,-0.0399,-0.0395,-0.0375,-0.0437,0,0,0,0,0,-0.0086,-0.0095,-0.0134,-0.0141,-0.0153,-0.0192,-0.0207,-0.0228,-0.0263,-0.0277,-0.0313,-0.035,-0.0382,-0.0399,-0.0433,-0.045,-0.0479,-0.0448,-0.0443,-0.0439,-0.043,-0.0468,-0.0466,-0.0493,-0.0493,-0.0493,0,0,-0.0075,-0.0097,-0.0102,-0.0134,-0.0158,-0.0165,-0.0202,-0.0219,-0.0223,-0.0283,-0.0298,-0.0338,-0.0385,-0.0404,-0.0416,-0.0425,-0.0446,-0.0438,-0.0434,-0.0427,-0.0467,-0.0464,-0.0462,-0.0492,-0.0492,-0.0492,0,0,-0.0055,-0.0075,-0.0075,-0.0092,-0.0122,-0.0144,-0.0146,-0.0185,-0.0201,-0.0224,-0.0264,-0.0296,-0.0344,-0.0373,-0.0394,-0.0383,-0.0422,-0.039,-0.0346,-0.0383,-0.0381,-0.0379,-0.0407,-0.0409,-0.0384,-0.0383,-0.0383,0,-0.0038,-0.0044,-0.0079,-0.008,-0.0085,-0.0129,-0.0122,-0.0145,-0.0189,-0.0195,-0.0218,-0.0285,-0.0328,-0.0349,-0.0345,-0.0371,-0.0395,-0.0364,-0.0376,-0.0375,-0.0375,-0.0404,-0.0407,-0.038,-0.038,-0.0381,-0.0381,0,-0.0019,-0.002,-0.002,-0.0033,-0.0042,-0.0044,-0.0074,-0.0085,-0.0107,-0.0132,-0.016,-0.0221,-0.0257,-0.0276,-0.0309,-0.0322,-0.0341,-0.0368,-0.0387,-0.0368,-0.04,-0.0404,-0.0375,-0.0377,-0.0378,-0.0378,0,0,0.0012,-0.0003,-0.0001,0.0011,-0.0014,-0.0013,-0.0016,-0.0029,-0.002,-0.007,-0.0068,-0.0133,-0.0165,-0.0192,-0.0238,-0.027,-0.0295,-0.031,-0.0313,-0.0331,-0.0368,-0.0372,-0.0377,-0.0323,-0.0323,-0.0324,-0.0389,0,0.004,0.0059,0.0041,0.007,0.0082,0.0054,0.0061,0.0046,0.0023,0.0013,-0.0051,-0.0072,-0.0133,-0.0146,-0.0189,-0.0269,-0.0302,-0.0274,-0.039,-0.0393,-0.0394,-0.0381,-0.0354,-0.0409,-0.0393,-0.0394,-0.0395,0,0.0067,0.008,0.0112,0.0136,0.014,0.015,0.0166,0.0164,0.0134,0.0114,0.0076,0.0027,-0.0028,-0.0083,-0.0204,-0.0181,-0.0265,-0.033,-0.0335,-0.0363,-0.0404,-0.0429,-0.0417,-0.0402,-0.0401,-0.0401,-0.04,0,0.0117,0.0134,0.0168,0.0173,0.0186,0.0202,0.0208,0.0196,0.0216,0.0178,0.0187,0.0103,0.0072,-0.0044,-0.0177,-0.0191,-0.0308,-0.0349,-0.0432,-0.0433,-0.0445,-0.0446,-0.0433,-0.0432,-0.0432,-0.0432,-0.0432,0,0.0156,0.0187,0.0196,0.0217,0.0271,0.0258,0.0306,0.0295,0.0301,0.0336,0.0245,0.0255,0.0081,-0.0004,-0.0143,-0.0289,-0.0285,-0.0417,-0.0449,-0.042,-0.0419,-0.0442,-0.0443,-0.0435,-0.0434,-0.0434,-0.0433,0,0.0201,0.0203,0.0252,0.0281,0.0294,0.0332,0.0379,0.0418,0.0404,0.0447,0.0444,0.0371,0.0257,0.0087,-0.0098,-0.0231,-0.038,-0.0435,-0.0383,-0.0407,-0.0493,-0.0489,-0.0538,-0.0539,-0.054,-0.054,-0.054,0,0.0224,0.0252,0.0304,0.0344,0.0358,0.0408,0.0452,0.0463,0.0513,0.0527,0.0562,0.0475,0.0433,0.0162,-0.0091,-0.0327,-0.0366,-0.0462,-0.0492,-0.0477,-0.0503,-0.0498,-0.0494,-0.0484,-0.0484,-0.0484,-0.0483,0,0.0279,0.0295,0.0338,0.0415,0.047,0.0536,0.0598,0.0658,0.0681,0.0721,0.0762,0.0734,0.0481,0.0251,-0.0078,-0.0247,-0.0424,-0.0467,-0.0468,-0.0455,-0.0429,-0.0453,-0.045,-0.0483,-0.0483,-0.0483,-0.0483,-0.0483,0.0325,0.0365,0.0422,0.0495,0.0565,0.0657,0.0727,0.0803,0.0894,0.0971,0.0928,0.0903,0.0619,0.0221,-0.0088,-0.0414,-0.0409,-0.052,-0.0519,-0.0519,-0.0494,-0.047,-0.0527,-0.0527,-0.0527,-0.0528,-0.0528,0,0.0382,0.0426,0.05,0.0592,0.0679,0.0703,0.0826,0.0902,0.1022,0.1092,0.1129,0.0904,0.0627,0.0301,-0.0178,-0.0471,-0.0505,-0.0561,-0.0536,-0.0534,-0.0533,-0.0509,-0.0546,-0.0547,-0.0548,-0.0549,0,0,0.0417,0.0493,0.0525,0.067,0.0741,0.0865,0.0943,0.1059,0.1143,0.1225,0.1231,0.1177,0.0768,0.043,0.0019,-0.0261,-0.0332,-0.0321,-0.0274,-0.0195,-0.0191,-0.0479,-0.0436,0,0,0,0,0]}],[{"header":{"parameterUnit":"m.s-1","parameterCategory":2,"la1":30.2991,"la2":30.254,"lo1":-89.0895,"lo2":-89.0444,"dy":0.0017,"dx":0.0017,"nx":28,"ny":28,"refTime":"2024-02-08T09:00:00:Z","depth":"4","parameterNumber":2,"parameterNumberName":"U-component_of_CURRENTS"},"data":[0,0,0,0,0,0,0,0,0,0,0,0,0,0,0,0,0,0,0,0,0,0,0,0,0,0,0,0,0,0,0,0,0,0,0,0,0,0,0,0,0,0,0,0,0,0,0,0,0,0,0,0,0,0,0,0,0,0,0.1421,0.1422,0,0.1479,0.1479,0.148,0.1533,0.1534,0.1534,0.1535,0.1609,0.1611,0.1612,0,0,0,0,0,0,0,0,0,0,0,0,0,0.1337,0.1338,0.1421,0.1422,0.1423,0.1478,0.1479,0.148,0.1533,0.1534,0.1535,0.1536,0.1609,0.1611,0.1612,0,0,0,0,0,0,0,0,0,0,0,0,0,0.1381,0.1339,0.1421,0.1457,0.1461,0.1478,0.1479,0.148,0.1533,0.1534,0.1535,0.1536,0.1609,0.161,0.1612,0.16,0,0,0.1618,0.1619,0,0,0,0,0,0,0,0,0.1378,0.1384,0.1451,0.1454,0.1459,0.1501,0.1477,0.1522,0.1532,0.1504,0.1535,0.1537,0.1575,0.1579,0.1586,0.1604,0.1607,0.1618,0.1619,0.162,0.1621,0,0,0,0,0,0,0,0.1375,0.1381,0.1442,0.1451,0.1456,0.1463,0.1471,0.1485,0.1531,0.1506,0.1511,0.1519,0.1577,0.1584,0.1588,0.1608,0.1618,0.162,0.1621,0.1622,0.1727,0.1729,0,0,0,0,0,0,0.1371,0.1378,0.1441,0.1444,0.1422,0.1464,0.1473,0.1485,0.1531,0.1539,0.1518,0.1521,0.158,0.1585,0.1591,0.1674,0.162,0.1622,0.1623,0.1726,0.1728,0.1729,0,0,0,0,0,0,0.1369,0.1376,0.1438,0.1413,0.1422,0.1465,0.1478,0.1486,0.1523,0.154,0.1548,0.1551,0.1581,0.1588,0.1637,0.1674,0.1623,0.1624,0.1724,0.1726,0.1728,0.178,0,0,0,0,0,0,0.1366,0.1375,0.1396,0.1413,0.1423,0.147,0.1477,0.1486,0.1525,0.1531,0.157,0.1577,0.1582,0.1634,0.1639,0.1676,0.1626,0.1721,0.1725,0.1728,0.1776,0.1784,0.1791,0,0,0,0,0,0.1363,0.1381,0.1397,0.1405,0.1447,0.1471,0.1478,0.151,0.1526,0.1547,0.158,0.1577,0.1658,0.1637,0.1642,0.168,0.172,0.1724,0.1727,0.1773,0.1783,0.1791,0,0,0,0,0,0,0.1357,0.1388,0.1406,0.1435,0.1463,0.1481,0.1507,0.1524,0.1565,0.1581,0.1595,0.1603,0.166,0.1662,0.1639,0.1721,0.169,0.1695,0.1723,0.1732,0.1739,0.1739,0.1627,0,0,0,0,0,0.1364,0.139,0.1417,0.1445,0.146,0.1488,0.1508,0.153,0.156,0.1581,0.1609,0.1642,0.1673,0.1698,0.1721,0.1762,0.1769,0.1792,0.1799,0.1805,0.1809,0.1851,0.1863,0.1742,0.1742,0.1742,0,0,0.137,0.1392,0.1408,0.1446,0.1471,0.1497,0.1504,0.1542,0.1575,0.1581,0.1643,0.1668,0.169,0.1741,0.1767,0.1752,0.1846,0.181,0.1815,0.1816,0.1857,0.1868,0.1879,0.1744,0.1744,0.1743,0,0,0.1381,0.1415,0.1437,0.1462,0.1506,0.1523,0.154,0.1578,0.1611,0.1662,0.1681,0.1728,0.1774,0.1801,0.1817,0.1877,0.1881,0.1892,0.1933,0.1974,0.1984,0.1993,0.2026,0.2037,0.1899,0.1899,0.1899,0,0.1389,0.1421,0.1448,0.1474,0.1502,0.1537,0.1566,0.1599,0.1653,0.1687,0.1693,0.1782,0.18,0.1863,0.189,0.1893,0.1917,0.1896,0.1983,0.1992,0.2,0.2031,0.2043,0.1902,0.1901,0.1901,0.1901,0,0.1406,0.1445,0.1461,0.1508,0.154,0.1574,0.1617,0.1664,0.1707,0.1741,0.1821,0.1851,0.1905,0.1922,0.1926,0.2001,0.1999,0.1984,0.1958,0.2015,0.2045,0.2056,0.1906,0.1905,0.1904,0.1903,0,0,0.1386,0.1459,0.1469,0.1503,0.1565,0.159,0.1653,0.1718,0.1769,0.1828,0.1896,0.1954,0.1982,0.2002,0.202,0.2057,0.2137,0.2055,0.2055,0.2082,0.2236,0.2121,0.2122,0.2144,0.2146,0.2148,0.2235,0,0.1397,0.1449,0.1487,0.1549,0.158,0.164,0.1694,0.176,0.182,0.1895,0.1947,0.2015,0.2009,0.205,0.2089,0.2129,0.2169,0.2115,0.218,0.2182,0.2069,0.2132,0.2155,0.2244,0.2246,0.2248,0.2249,0,0.1394,0.1435,0.1494,0.158,0.1601,0.1647,0.1748,0.1803,0.1906,0.1958,0.2034,0.2076,0.2159,0.2136,0.2234,0.2206,0.223,0.2247,0.225,0.213,0.2088,0.2173,0.227,0.2268,0.2267,0.2265,0.2264,0,0.1356,0.144,0.1492,0.152,0.1617,0.1669,0.1729,0.1827,0.1891,0.2008,0.2068,0.2156,0.2222,0.2266,0.2315,0.2289,0.2409,0.2371,0.2287,0.228,0.2332,0.2322,0.2433,0.2433,0.2433,0.2432,0.2432,0,0.1336,0.1383,0.1486,0.1513,0.1587,0.1662,0.1749,0.1823,0.1938,0.2007,0.2104,0.2166,0.2261,0.2337,0.2354,0.2364,0.2446,0.2305,0.2298,0.2353,0.2344,0.2341,0.2329,0.2436,0.2435,0.2434,0.2434,0,0.128,0.1349,0.1415,0.1529,0.157,0.1623,0.1756,0.1812,0.1934,0.203,0.2076,0.2214,0.2305,0.2382,0.2466,0.2408,0.2427,0.2409,0.2483,0.2477,0.2258,0.2248,0.2311,0.2307,0.2304,0.2302,0.23,0,0.1253,0.1283,0.1409,0.1452,0.151,0.1602,0.1661,0.1795,0.1855,0.2033,0.207,0.2215,0.2286,0.2317,0.2403,0.244,0.2411,0.2401,0.2302,0.2261,0.2248,0.2242,0.2236,0.2296,0.2295,0.2294,0.2294,0,0.1201,0.1259,0.1314,0.1397,0.147,0.1539,0.1638,0.1669,0.1814,0.1945,0.2014,0.2069,0.2175,0.2238,0.2299,0.2312,0.2392,0.2371,0.2376,0.2282,0.2244,0.2232,0.223,0.2284,0.2286,0.2286,0.2287,0,0.1167,0.1189,0.1269,0.1331,0.1412,0.1448,0.151,0.1582,0.1659,0.1845,0.1863,0.2013,0.2144,0.2175,0.2226,0.2243,0.2198,0.2108,0.2125,0.2137,0.2041,0.1964,0.1922,0,0,0,0,0,0.1124,0.1141,0.1195,0.1253,0.1324,0.1375,0.1483,0.1546,0.1679,0.1682,0.1768,0.1851,0.1929,0.2017,0.2001,0.2161,0.2212,0.2134,0.2118,0.2231,0.2242,0.2146,0,0,0,0,0,0,0.1096,0.1145,0.1164,0.1171,0.1194,0.1263,0.1325,0.1417,0.143,0.1571,0.163,0.1745,0.1859,0.1923,0.1967,0.1995,0.1948,0.2236,0.2231,0.2225,0.2235,0.2244,0.2149,0,0,0,0,0]},{"header":{"parameterUnit":"m.s-1","parameterCategory":2,"la1":30.2991,"la2":30.254,"lo1":-89.0895,"lo2":-89.0444,"dy":0.0017,"dx":0.0017,"nx":28,"ny":28,"refTime":"2024-02-08T09:00:00:Z","depth":"4","parameterNumber":3,"parameterNumberName":"V-component_of_CURRENTS"},"data":[0,0,0,0,0,0,0,0,0,0,0,0,0,0,0,0,0,0,0,0,0,0,0,0,0,0,0,0,0,0,0,0,0,0,0,0,0,0,0,0,0,0,0,0,0,0,0,0,0,0,0,0,0,0,0,0,0,0,-0.0093,-0.0094,0,-0.015,-0.0151,-0.0152,-0.0189,-0.0189,-0.0189,-0.0189,-0.0273,-0.0275,-0.0277,0,0,0,0,0,0,0,0,0,0,0,0,0,-0.0034,-0.0035,-0.0093,-0.0094,-0.0094,-0.015,-0.0151,-0.0152,-0.0189,-0.0189,-0.0189,-0.019,-0.0272,-0.0275,-0.0277,0,0,0,0,0,0,0,0,0,0,0,0,0,-0.0073,-0.0035,-0.0093,-0.012,-0.0123,-0.015,-0.0151,-0.0152,-0.0189,-0.0189,-0.0189,-0.019,-0.0272,-0.0275,-0.0277,-0.0289,0,0,-0.0287,-0.0288,0,0,0,0,0,0,0,0,-0.007,-0.0075,-0.0115,-0.0118,-0.0121,-0.0163,-0.0161,-0.0199,-0.0189,-0.0163,-0.0189,-0.019,-0.0238,-0.0244,-0.0254,-0.0293,-0.0297,-0.0287,-0.0289,-0.029,-0.0291,0,0,0,0,0,0,0,-0.0068,-0.0072,-0.0116,-0.0116,-0.0119,-0.0135,-0.0141,-0.0169,-0.0199,-0.0166,-0.0169,-0.0175,-0.024,-0.0251,-0.0256,-0.0298,-0.0287,-0.029,-0.0291,-0.0293,-0.036,-0.036,0,0,0,0,0,0,-0.0059,-0.007,-0.0114,-0.0117,-0.0096,-0.0136,-0.0142,-0.0149,-0.0198,-0.0206,-0.0175,-0.0176,-0.0245,-0.0252,-0.0259,-0.0277,-0.029,-0.0293,-0.0295,-0.036,-0.036,-0.036,0,0,0,0,0,0,-0.0058,-0.0063,-0.0112,-0.0095,-0.0102,-0.0137,-0.0144,-0.015,-0.0164,-0.0204,-0.0213,-0.0183,-0.0246,-0.0255,-0.0286,-0.0281,-0.0294,-0.0297,-0.036,-0.036,-0.036,-0.0313,0,0,0,0,0,0,-0.0056,-0.0062,-0.0064,-0.0094,-0.0103,-0.0126,-0.0144,-0.0151,-0.0167,-0.0171,-0.0214,-0.0222,-0.0247,-0.0282,-0.0289,-0.0285,-0.0299,-0.036,-0.036,-0.036,-0.0314,-0.0311,-0.0308,0,0,0,0,0,-0.0054,-0.0055,-0.0064,-0.0069,-0.0105,-0.0126,-0.0132,-0.0157,-0.0167,-0.0172,-0.0203,-0.0221,-0.0287,-0.0284,-0.0293,-0.029,-0.036,-0.036,-0.036,-0.0316,-0.0312,-0.0308,0,0,0,0,0,0,-0.0032,-0.006,-0.007,-0.008,-0.01,-0.0132,-0.014,-0.0156,-0.0183,-0.0187,-0.0225,-0.0235,-0.0261,-0.0283,-0.0279,-0.0309,-0.0325,-0.0327,-0.0288,-0.0285,-0.0282,-0.0264,-0.0302,0,0,0,0,0,-0.0027,-0.0036,-0.0063,-0.0071,-0.008,-0.0109,-0.0121,-0.0137,-0.0165,-0.0177,-0.0207,-0.0239,-0.0267,-0.0281,-0.0311,-0.0328,-0.0349,-0.0331,-0.0328,-0.0325,-0.0318,-0.0349,-0.0348,-0.036,-0.036,-0.036,0,0,-0.0022,-0.0037,-0.0043,-0.0067,-0.0084,-0.0091,-0.0117,-0.0132,-0.0137,-0.0182,-0.02,-0.0233,-0.0271,-0.0291,-0.0303,-0.0308,-0.0333,-0.0325,-0.0322,-0.0316,-0.0349,-0.0347,-0.0346,-0.036,-0.036,-0.036,0,0,-0.0011,-0.0027,-0.0029,-0.0041,-0.0064,-0.0079,-0.0082,-0.0112,-0.0126,-0.0148,-0.0181,-0.0209,-0.0251,-0.0275,-0.0292,-0.0291,-0.0319,-0.03,-0.0267,-0.0297,-0.0296,-0.0295,-0.0317,-0.0319,-0.0294,-0.0294,-0.0293,0,-0.0002,-0.0007,-0.0032,-0.0034,-0.0038,-0.0071,-0.0067,-0.0086,-0.0122,-0.0128,-0.0147,-0.0205,-0.0241,-0.0261,-0.0262,-0.0283,-0.0302,-0.0276,-0.0292,-0.0292,-0.0292,-0.0315,-0.0317,-0.0291,-0.0291,-0.0292,-0.0292,0,0.0007,0.0006,0.0005,-0.0005,-0.0012,-0.0016,-0.0038,-0.0048,-0.0068,-0.0087,-0.0114,-0.0164,-0.0194,-0.0212,-0.0238,-0.0254,-0.0267,-0.0288,-0.0298,-0.0288,-0.0312,-0.0316,-0.0288,-0.0289,-0.0289,-0.029,0,0,0.0023,0.0014,0.0015,0.0025,0.0006,0.0006,0.0001,-0.0009,-0.0003,-0.0047,-0.0046,-0.0104,-0.0129,-0.015,-0.0188,-0.0215,-0.0238,-0.0246,-0.0248,-0.026,-0.0298,-0.0293,-0.0296,-0.0261,-0.0262,-0.0262,-0.0313,0,0.004,0.0053,0.0041,0.0062,0.007,0.0051,0.0056,0.0044,0.0025,0.0017,-0.0036,-0.0054,-0.0105,-0.0115,-0.0153,-0.0217,-0.0246,-0.0222,-0.0312,-0.0314,-0.0305,-0.0299,-0.0263,-0.0316,-0.0316,-0.0317,-0.0317,0,0.0054,0.0065,0.0087,0.011,0.0113,0.012,0.0135,0.0133,0.011,0.0095,0.0063,0.0024,-0.0023,-0.0067,-0.0167,-0.0149,-0.0217,-0.027,-0.0273,-0.0285,-0.0315,-0.033,-0.0324,-0.0324,-0.0323,-0.0323,-0.0322,0,0.0087,0.0101,0.0126,0.013,0.0144,0.0157,0.0164,0.0157,0.0175,0.0144,0.0155,0.0084,0.0059,-0.0037,-0.0147,-0.0157,-0.0256,-0.0285,-0.0344,-0.0345,-0.0355,-0.0356,-0.0355,-0.0355,-0.0355,-0.0354,-0.0354,0,0.011,0.0133,0.0145,0.0161,0.0205,0.0197,0.0238,0.0233,0.0241,0.0271,0.0198,0.0204,0.0065,-0.0006,-0.012,-0.0236,-0.0238,-0.0333,-0.0356,-0.0334,-0.0332,-0.0358,-0.0357,-0.0356,-0.0356,-0.0356,-0.0355,0,0.0136,0.0141,0.0179,0.0207,0.0221,0.0251,0.0297,0.033,0.0323,0.036,0.0359,0.0297,0.0199,0.0063,-0.009,-0.0187,-0.0307,-0.035,-0.0302,-0.0322,-0.0383,-0.038,-0.0417,-0.0418,-0.0418,-0.0418,-0.0418,0,0.0149,0.0169,0.0218,0.0254,0.0267,0.0311,0.0352,0.0367,0.0407,0.0419,0.0446,0.0374,0.031,0.0115,-0.0054,-0.0263,-0.0301,-0.0365,-0.039,-0.037,-0.0389,-0.0386,-0.0382,-0.0418,-0.0418,-0.0418,-0.0418,0,0.0183,0.0198,0.0234,0.0304,0.0354,0.0413,0.0467,0.0508,0.0531,0.0531,0.0534,0.043,0.0319,0.0138,-0.0022,-0.0179,-0.0325,-0.0367,-0.0369,-0.0393,-0.0372,-0.039,-0.0386,-0.0419,-0.0419,-0.0419,-0.0419,0,0.0213,0.0244,0.0294,0.0356,0.0425,0.0496,0.0518,0.0568,0.0605,0.0617,0.0614,0.0485,0.0406,0.0182,0.0032,-0.0119,-0.017,-0.0231,-0.024,-0.0242,-0.0186,-0.0134,-0.012,0,0,0,0,0,0.0241,0.0282,0.0345,0.0417,0.0486,0.0526,0.0595,0.0612,0.0636,0.0657,0.0641,0.0539,0.0324,0.0226,0.0079,0.0002,-0.0214,-0.0179,-0.0292,-0.0422,-0.0422,-0.0388,0,0,0,0,0,0,0.0265,0.0323,0.0351,0.0455,0.0511,0.0593,0.0639,0.0655,0.0664,0.0664,0.0558,0.0498,0.0289,0.0417,0.0078,0.0029,-0.0066,-0.0283,-0.0286,-0.0423,-0.0422,-0.0422,-0.0386,0,0,0,0,0]}]]